TimeMST,TemperatureF,Dew PointF,Humidity,Sea Level PressureIn,VisibilityMPH,Wind Direction,Wind SpeedMPH,Gust SpeedMPH,PrecipitationIn,Events,Conditions,WindDirDegrees,DateUTC
12:53 AM,18.0,5.0,57,30.02,10.0,SE,9.2,-,N/A,,Mostly Cloudy,130,2013-12-07 07:53:00
1:53 AM,18.0,5.0,57,29.98,10.0,SE,9.2,-,N/A,,Mostly Cloudy,140,2013-12-07 08:53:00
2:53 AM,19.9,6.1,55,29.94,10.0,SE,13.8,-,N/A,,Mostly Cloudy,140,2013-12-07 09:53:00
3:53 AM,19.9,8.1,60,29.89,10.0,SE,4.6,-,N/A,,Scattered Clouds,140,2013-12-07 10:53:00
4:53 AM,21.0,12.0,68,29.85,10.0,SE,11.5,-,N/A,,Scattered Clouds,140,2013-12-07 11:53:00
5:53 AM,24.1,12.0,60,29.83,10.0,SE,10.4,-,N/A,,Mostly Cloudy,140,2013-12-07 12:53:00
6:53 AM,25.0,12.9,60,29.82,10.0,SE,11.5,-,N/A,,Overcast,140,2013-12-07 13:53:00
7:53 AM,26.1,12.9,58,29.79,10.0,SE,10.4,-,N/A,,Overcast,140,2013-12-07 14:53:00
8:53 AM,26.1,17.1,69,29.80,4.0,South,12.7,-,0.00,Snow,Light Snow,170,2013-12-07 15:53:00
9:00 AM,26.6,17.6,69,29.71,2.5,South,16.1,-,0.00,Snow,Light Snow,170,2013-12-07 16:00:00
9:22 AM,26.6,19.4,74,29.71,2.0,SSE,10.4,-,0.00,Snow,Light Snow,150,2013-12-07 16:22:00
9:50 AM,26.6,19.4,74,29.71,2.0,SE,9.2,-,0.00,Snow,Light Snow,130,2013-12-07 16:50:00
9:53 AM,26.1,19.9,78,29.80,2.0,SSE,9.2,-,0.00,Snow,Light Snow,150,2013-12-07 16:53:00
10:20 AM,26.6,19.4,74,29.71,2.0,SSE,12.7,-,0.00,Snow,Light Snow,150,2013-12-07 17:20:00
10:53 AM,27.0,19.9,75,29.78,2.0,SE,9.2,-,0.01,,Overcast,140,2013-12-07 17:53:00
11:53 AM,28.0,19.9,72,29.75,7.0,South,15.0,-,0.00,,Overcast,170,2013-12-07 18:53:00
12:53 PM,28.0,19.9,72,29.73,7.0,South,10.4,-,N/A,,Overcast,170,2013-12-07 19:53:00
1:53 PM,28.0,19.9,72,29.71,7.0,SSE,13.8,-,N/A,,Overcast,160,2013-12-07 20:53:00
2:53 PM,28.9,21.0,72,29.70,8.0,SE,9.2,-,N/A,,Overcast,140,2013-12-07 21:53:00
3:53 PM,28.9,21.0,72,29.70,3.0,SE,8.1,-,N/A,,Overcast,130,2013-12-07 22:53:00
4:53 PM,28.9,21.0,72,29.71,9.0,SE,4.6,-,0.00,,Overcast,140,2013-12-07 23:53:00
5:30 PM,28.4,21.2,74,29.66,10.0,West,3.5,-,0.00,,Overcast,260,2013-12-08 00:30:00
5:40 PM,28.4,21.2,74,29.67,2.0,West,8.1,-,0.00,Snow,Light Snow,270,2013-12-08 00:40:00
5:44 PM,28.4,21.2,74,29.67,1.0,West,6.9,-,0.00,Snow,Light Snow,280,2013-12-08 00:44:00
5:53 PM,27.0,21.0,78,29.74,0.8,NNW,15.0,19.6,0.00,Snow,Light Snow,330,2013-12-08 00:53:00
6:05 PM,24.8,19.4,80,29.69,1.0,NNW,15.0,-,0.01,Snow,Light Snow,330,2013-12-08 01:05:00
6:19 PM,24.8,19.4,80,29.69,1.5,NNW,15.0,-,0.01,Snow,Light Snow,330,2013-12-08 01:19:00
6:34 PM,24.8,19.4,80,29.70,1.2,NNW,13.8,-,0.02,Snow,Light Snow,330,2013-12-08 01:34:00
6:44 PM,24.8,19.4,80,29.71,3.0,NNW,15.0,-,0.02,Snow,Light Snow,340,2013-12-08 01:44:00
6:53 PM,23.0,18.0,81,29.79,4.0,North,11.5,-,0.02,Snow,Light Snow,350,2013-12-08 01:53:00
7:19 PM,23.0,17.6,80,29.73,2.5,North,16.1,-,0.00,Snow,Light Snow,360,2013-12-08 02:19:00
7:36 PM,23.0,17.6,80,29.75,1.8,North,12.7,-,0.00,Snow,Light Snow,360,2013-12-08 02:36:00
7:46 PM,24.8,17.6,74,29.75,2.0,North,11.5,-,0.00,Snow,Light Snow,350,2013-12-08 02:46:00
7:53 PM,24.1,18.0,77,29.83,2.5,NNW,11.5,-,0.00,Snow,Light Snow,340,2013-12-08 02:53:00
8:00 PM,24.8,17.6,74,29.76,3.0,NNW,10.4,-,0.00,Snow,Light Snow,330,2013-12-08 03:00:00
8:23 PM,24.8,17.6,74,29.77,1.8,NNW,6.9,-,0.00,Snow,Light Snow,330,2013-12-08 03:23:00
8:35 PM,24.8,17.6,74,29.78,1.0,NW,9.2,-,0.01,Snow,Light Snow,320,2013-12-08 03:35:00
8:53 PM,24.1,18.0,77,29.86,1.0,NNW,8.1,-,0.02,Snow,Light Snow,340,2013-12-08 03:53:00
9:12 PM,23.0,17.6,80,29.79,1.5,North,13.8,-,0.00,Snow,Light Snow,350,2013-12-08 04:12:00
9:44 PM,21.2,15.8,80,29.80,1.8,NW,12.7,-,0.00,Snow,Light Snow,320,2013-12-08 04:44:00
9:53 PM,21.0,15.1,78,29.88,2.5,NW,11.5,-,0.00,Snow,Light Snow,320,2013-12-08 04:53:00
10:07 PM,21.2,14.0,74,29.82,3.0,NNW,11.5,-,0.00,Snow,Light Snow,340,2013-12-08 05:07:00
10:28 PM,21.2,12.2,68,29.83,5.0,NNW,9.2,-,0.00,Snow,Light Snow,340,2013-12-08 05:28:00
10:46 PM,19.4,14.0,80,29.83,2.5,NNW,11.5,-,0.00,Snow,Light Snow,340,2013-12-08 05:46:00
10:53 PM,19.9,12.9,74,29.91,2.0,NNW,15.0,-,0.00,Snow,Light Snow,330,2013-12-08 05:53:00
11:53 PM,19.9,12.9,74,29.93,2.0,NNW,9.2,-,0.01,Snow,Light Snow,330,2013-12-08 06:53:00